Hourly Data Report for September 12, 2017

All times are specified in Local Standard Time (LST). Add 1 hour to adjust for Daylight Saving Time where and when it is observed.

SATURNA ISLAND CS
BRITISH COLUMBIA

48°47'02.067" N
123°02'41.082" W
24.40 m
1017101
71473
WEZ

Download Data

Hourly Data (September 2017)
Hourly Data Report for September 12, 2017
Temp Definition
°C
Dew Point Temp Definition
°C
Rel Hum Definition
%
Wind Dir Definition
10's deg

Wind Spd Definition
km/h
Visibility Definition
km
Stn Press Definition
kPa
Hmdx Definition


Wind Chill Definition


Weather Definition


TIME
00:00 15.9 13.0 83 29 2   101.30     LegendNANA
01:00 16.2 14.0 87 33 10   101.31     LegendNANA
02:00 14.6 12.4 86 22 4   101.32     LegendNANA
03:00 14.1 11.4 84 22 2   101.29     LegendNANA
04:00 14.9 12.7 87 20 4   101.30     LegendNANA
05:00 14.7 12.5 87 16 2   101.30     LegendNANA
06:00 14.6 12.8 89 21 2   101.30     LegendNANA
07:00 14.9 13.2 90 23 7   101.34     LegendNANA
08:00 15.5 13.5 88 32 2   101.35     LegendNANA
09:00 15.8 13.2 85 20 5   101.34     LegendNANA
10:00 15.1 12.5 84 16 6   101.33     LegendNANA
11:00 15.3 12.6 84 7 2   101.33     LegendNANA
12:00 16.6 12.9 79 33 4   101.31     LegendNANA
13:00 17.8 12.5 71 33 9   101.27     LegendNANA
14:00 18.6 12.9 69 34 7   101.23     LegendNANA
15:00 18.3 11.9 66 32 6   101.18     LegendNANA
16:00 17.0 11.9 72 33 6   101.16     LegendNANA
17:00 16.2 12.7 80 31 4   101.14     LegendNANA
18:00 16.0 12.7 81 30 5   101.12     LegendNANA
19:00 16.4 11.5 73 30 4   101.11     LegendNANA
20:00 16.6 11.2 70 24 2   101.12     LegendNANA
21:00 17.0 9.6 62 28 8   101.10     LegendNANA
22:00 16.8 10.1 65 28 7   101.09     LegendNANA
23:00 16.0 9.6 66 29 4   101.14     LegendNANA

Notes on Data Quality.

Legend

  • E = Estimated
  • M = Missing
  • NA = Not Available
  • ‡ = Partner data that is not subject to review by the National Climate Archives
Date modified: